Tracking 28790 objects as of 19-Apr-2024
HD Live streaming from Space Station
objects crossing your sky now

COSMOS 1408 DEB

Track COSMOS 1408 DEB now!
10-day predictions


NORAD ID: 50020
Int'l Code: 1982-092RG
Perigee: 343.0 km
Apogee: 348.2 km
Inclination: 82.6 °
Period: 91.3 minutes
Semi major axis: 6716 km
RCS: Unknown
Launch date: September 16, 1982
Source: Commonwealth of Independent States (former USSR) (CIS)
Launch site: PLESETSK MISSILE AND SPACE COMPLEX (PKMTR)

Note: This is SATELLITE DEBRIS
Your satellite tracking list
Your tracking list is empty




NASA's NSSDC Master Catalog

Two Line Element Set (TLE):
1 50020U 82092RG  24109.91272036  .00180548  00000-0  10866-2 0  9993
2 50020  82.6086 308.1773 0003874 128.5785 231.5829 15.77182585134227
Source of the keplerian elements: AFSPC